Weather History for Altus AFB, OK

Change the Weather History Date:

Wednesday, January 1, 2014

  Actual Average Record
Temperature  
Mean Temperature 41 °F -  
Max Temperature 56 °F 50 °F 73 °F (1997)
Min Temperature 25 °F 26 °F 14 °F (2011)
Degree Days  
Heating Degree Days 24    
Moisture  
Dew Point 27 °F    
Average Humidity 72    
Maximum Humidity 99    
Minimum Humidity 38    
Precipitation  
Precipitation 0.00 in - - ()
Sea Level Pressure  
Sea Level Pressure 30.07 in    
Wind  
Wind Speed 11 mph (NNE)    
Max Wind Speed 26 mph    
Max Gust Speed 32 mph    
Visibility 10 miles    
Events      
Averages and records for this station are not official NWS values.
T = Trace of Precipitation, MM = Missing Value Source: NWS Daily Summary

Daily Weather History Graph

Daily Weather History Graph

Search for Another Location

Airport:

Trip Planner

Search our weather history database for the weather conditions in past years. The results will help you decide how hot, cold, wet, or windy it might be!

Date:

Astronomy

Jan. 01, 2014 Rise Set
Actual Time 7:44 AM CST 5:37 PM CST
Civil Twilight 7:16 AM CST 6:05 PM CST
Nautical Twilight 6:44 AM CST 6:36 PM CST
Astronomical Twilight 6:14 AM CST 7:07 PM CST
Moon 7:38 AM CST 6:20 PM CST
Length of Visible Light 10h 48m
Length of Day
9h 53m
New Moon, 0% of the Moon is Illuminated
Jan 1
New Moon
Jan 7
First Quarter
Jan 15
Full
Jan 23
Last Quarter
Jan 30
New

Hourly Weather History & Observations

Time (CST) Temp. Windchill Dew Point Humidity Pressure Visibility Wind Dir Wind Speed Gust Speed Precip Events Conditions
12:58 AM 32.2 °F 25.0 °F 28.8 °F 87% 30.04 in 10.0 mi ESE 8.1 mph - N/A   Clear
1:58 AM 33.1 °F 24.9 °F 29.7 °F 87% 30.01 in 10.0 mi ESE 10.4 mph - N/A   Clear
2:58 AM 32.4 °F 26.0 °F 29.5 °F 89% 29.99 in 10.0 mi SE 6.9 mph - N/A   Clear
3:58 AM 31.8 °F 23.3 °F 29.5 °F 91% 29.96 in 10.0 mi SE 10.4 mph - N/A   Clear
4:58 AM 30.2 °F 22.6 °F 29.5 °F 97% 29.94 in 10.0 mi SE 8.1 mph - N/A   Clear
5:58 AM 31.1 °F 24.5 °F 30.2 °F 96% 29.92 in 10.0 mi SE 6.9 mph - N/A   Clear
6:58 AM 30.2 °F 22.6 °F 29.8 °F 99% 29.92 in 10.0 mi SE 8.1 mph - N/A   Clear
7:58 AM 27.9 °F - 27.5 °F 99% 29.91 in 10.0 mi SSE 2.3 mph - N/A   Clear
8:58 AM 33.1 °F 28.7 °F 32.2 °F 96% 29.92 in 10.0 mi ESE 4.6 mph - N/A   Clear
9:58 AM 38.8 °F 35.4 °F 33.3 °F 80% 29.92 in 10.0 mi SW 4.6 mph - N/A   Clear
10:58 AM 44.4 °F 41.2 °F 31.6 °F 61% 29.91 in 10.0 mi WSW 5.8 mph - N/A   Clear
11:58 AM 47.5 °F - 30.7 °F 52% 29.91 in 10.0 mi West 9.2 mph - N/A   Clear
12:58 PM 50.9 °F - 31.6 °F 48% 29.90 in 10.0 mi NW 8.1 mph - N/A   Clear
1:58 PM 54.0 °F - 32.4 °F 44% 29.90 in 10.0 mi NNW 11.5 mph - N/A   Clear
2:58 PM 56.3 °F - 30.7 °F 38% 29.92 in 10.0 mi North 16.1 mph 20.7 mph N/A   Clear
3:58 PM 54.7 °F - 32.0 °F 42% 29.97 in 10.0 mi North 23.0 mph 29.9 mph N/A   Clear
4:58 PM 44.2 °F 34.8 °F 28.9 °F 55% 30.07 in 10.0 mi North 26.5 mph 32.2 mph N/A   Clear
5:58 PM 38.1 °F 28.1 °F 26.1 °F 62% 30.14 in 10.0 mi North 19.6 mph 25.3 mph N/A   Clear
6:58 PM 35.1 °F 24.5 °F 23.0 °F 61% 30.22 in 10.0 mi North 18.4 mph 28.8 mph N/A   Clear
7:58 PM 32.5 °F 20.5 °F 21.0 °F 63% 30.27 in 10.0 mi North 20.7 mph 25.3 mph N/A   Clear
8:43 PM 30.2 °F 18.5 °F 19.4 °F 64% 30.27 in 10.0 mi North 17.3 mph 20.7 mph N/A   Mostly Cloudy
8:58 PM 29.7 °F 20.7 °F 20.1 °F 68% 30.32 in 10.0 mi North 10.4 mph 24.2 mph N/A   Overcast
9:13 PM 28.4 °F 17.0 °F 21.2 °F 74% 30.28 in 10.0 mi North 15.0 mph 20.7 mph N/A   Scattered Clouds
9:58 PM 27.9 °F 16.8 °F 19.4 °F 71% 30.35 in 10.0 mi NNW 13.8 mph - N/A   Clear
10:58 PM 26.2 °F 14.7 °F 18.3 °F 72% 30.36 in 10.0 mi NNW 13.8 mph - N/A   Clear
11:58 PM 25.0 °F 11.7 °F 17.8 °F 74% 30.40 in 10.0 mi NNW 17.3 mph 24.2 mph N/A   Partly Cloudy